Location: Brede
(50.9167°N, 0.6000°E)
Time: 08:25:27
(UTC+00:00)

Altair - Pass Details

Date: 30 July 2021
Orbit: 1501 x 1682 km, 47.2° (Epoch: 18 September)

Event Time Altitude Azimuth Distance (km) Brightness Sun altitude
Exits shadow 00:50:39 20° 157° (SSE) 2,978 8.5 -19.8°
Maximum altitude 00:53:22 23° 134° (SE) 2,802 8.6 -19.8°
Drops below altitude 10° 01:00:04 10° 86° (E) 3,670 9.7 -19.5°
Sets 01:03:50 0° 73° (ENE) 4,644 10.5 -19.4°
